Hourly Weather Holyshiv

Today, 11 April, Sunday

Time Temperature Precipitation Wind Pressure Humidity
00:00 +5°C° 0 mm 3 mps 749 mmHg 76%
01:00 +5°C° 0 mm 3 mps 749 mmHg 76%
02:00 +5°C° 0 mm 3 mps 749 mmHg 77%
03:00 +5°C° 0 mm 3 mps 749 mmHg 77%
04:00 +4°C° 0 mm 3 mps 749 mmHg 76%
05:00 +4°C° 0 mm 3 mps 750 mmHg 76%
06:00 +5°C° 0 mm 3 mps 750 mmHg 71%
07:00 +7°C° 0 mm 4 mps 750 mmHg 65%
08:00 +8°C° 0 mm 4 mps 750 mmHg 60%
09:00 +10°C° 0 mm 4 mps 750 mmHg 55%
10:00 +12°C° 0 mm 5 mps 750 mmHg 50%
11:00 +13°C° 0 mm 6 mps 750 mmHg 45%
12:00 +14°C° 0 mm 6 mps 750 mmHg 43%
13:00 +15°C° 0 mm 6 mps 750 mmHg 40%
14:00 +15°C° 0 mm 6 mps 750 mmHg 38%
15:00 +15°C° 0 mm 6 mps 750 mmHg 39%
16:00 +15°C° 0 mm 5 mps 749 mmHg 41%
17:00 +15°C° 0 mm 5 mps 749 mmHg 43%
18:00 +13°C° 0 mm 5 mps 749 mmHg 48%
19:00 +11°C° 0 mm 4 mps 750 mmHg 54%
20:00 +8°C° 0 mm 4 mps 750 mmHg 59%
21:00 +8°C° 0 mm 4 mps 750 mmHg 59%
22:00 +7°C° 0 mm 4 mps 750 mmHg 58%
23:00 +7°C° 0 mm 5 mps 750 mmHg 58%

Tomorrow, 12 April, Monday

Time Temperature Precipitation Wind Pressure Humidity
00:00 +6°C° 0 mm 4 mps 750 mmHg 59%
01:00 +6°C° 0 mm 4 mps 750 mmHg 60%
02:00 +5°C° 0 mm 4 mps 750 mmHg 61%
03:00 +5°C° 0 mm 4 mps 750 mmHg 62%
04:00 +5°C° 0 mm 4 mps 749 mmHg 62%
05:00 +4°C° 0 mm 4 mps 749 mmHg 63%
06:00 +5°C° 0 mm 4 mps 749 mmHg 62%
07:00 +6°C° 0 mm 4 mps 749 mmHg 61%
08:00 +7°C° 0 mm 4 mps 749 mmHg 60%
09:00 +8°C° 0 mm 4 mps 749 mmHg 56%
10:00 +10°C° 0 mm 5 mps 749 mmHg 51%
11:00 +13°C° 0 mm 5 mps 749 mmHg 47%
12:00 +14°C° 0 mm 5 mps 748 mmHg 46%
13:00 +15°C° 0 mm 4 mps 748 mmHg 45%
14:00 +15°C° 0 mm 4 mps 748 mmHg 44%
15:00 +17°C° 0 mm 4 mps 747 mmHg 45%
16:00 +17°C° 0 mm 4 mps 747 mmHg 46%
17:00 +17°C° 0 mm 3 mps 747 mmHg 47%
18:00 +14°C° 0 mm 3 mps 747 mmHg 52%
19:00 +13°C° 0 mm 3 mps 747 mmHg 57%
20:00 +11°C° 0 mm 3 mps 747 mmHg 61%
21:00 +11°C° 0 mm 3 mps 747 mmHg 62%
22:00 +10°C° 0 mm 2 mps 747 mmHg 62%
23:00 +10°C° 0 mm 2 mps 747 mmHg 63%

Day after tomorrow, 13 April, Tuesday

Time Temperature Precipitation Wind Pressure Humidity
00:00 +10°C° 0 mm 2 mps 747 mmHg 63%
01:00 +9°C° 0 mm 2 mps 747 mmHg 63%
02:00 +9°C° 0 mm 2 mps 747 mmHg 63%
03:00 +9°C° 0 mm 2 mps 747 mmHg 63%
04:00 +10°C° 0 mm 1 mps 747 mmHg 63%
05:00 +9°C° 0 mm 1 mps 746 mmHg 63%
06:00 +10°C° 0 mm 1 mps 747 mmHg 61%
07:00 +11°C° 0 mm 1 mps 747 mmHg 60%
08:00 +12°C° 0 mm 1 mps 747 mmHg 58%
09:00 +13°C° 0 mm 1 mps 747 mmHg 54%
10:00 +15°C° 0 mm 1 mps 747 mmHg 51%
11:00 +16°C° 0 mm 1 mps 747 mmHg 47%
12:00 +18°C° 0 mm 1 mps 746 mmHg 45%
13:00 +18°C° 0 mm 1 mps 746 mmHg 44%
14:00 +18°C° 0 mm 2 mps 746 mmHg 43%
15:00 +18°C° 0 mm 2 mps 745 mmHg 46%
16:00 +17°C° 0 mm 3 mps 745 mmHg 49%
17:00 +17°C° 0 mm 4 mps 745 mmHg 52%
18:00 +14°C° 0 mm 4 mps 745 mmHg 61%
19:00 +13°C° 0 mm 5 mps 745 mmHg 69%
20:00 +10°C° 0 mm 5 mps 745 mmHg 78%
21:00 +9°C° 0 mm 5 mps 745 mmHg 82%
22:00 +8°C° 0 mm 5 mps 745 mmHg 85%
23:00 +7°C° 0 mm 5 mps 744 mmHg 88%

14 April, Wednesday

Time Temperature Precipitation Wind Pressure Humidity
00:00 +6°C° 0 mm 4 mps 744 mmHg 90%
01:00 +6°C° 0 mm 4 mps 744 mmHg 92%
02:00 +5°C° 0 mm 4 mps 744 mmHg 93%
03:00 +5°C° 0 mm 4 mps 743 mmHg 92%
04:00 +5°C° 0 mm 4 mps 743 mmHg 91%
05:00 +5°C° 0 mm 4 mps 743 mmHg 90%
06:00 +5°C° 0.1 mm 4 mps 743 mmHg 89%
07:00 +5°C° 0.1 mm 4 mps 743 mmHg 88%
08:00 +5°C° 0.1 mm 4 mps 743 mmHg 87%
09:00 +5°C° 0.4 mm 4 mps 743 mmHg 88%
10:00 +5°C° 0.4 mm 4 mps 743 mmHg 89%
11:00 +5°C° 0.4 mm 4 mps 743 mmHg 90%
12:00 +5°C° 0.4 mm 4 mps 743 mmHg 90%
13:00 +5°C° 0.4 mm 4 mps 743 mmHg 91%
14:00 +4°C° 0.4 mm 4 mps 743 mmHg 91%
15:00 +4°C° 0.1 mm 3 mps 743 mmHg 91%
16:00 +4°C° 0.1 mm 3 mps 743 mmHg 91%
17:00 +4°C° 0.1 mm 3 mps 743 mmHg 91%
18:00 +4°C° 0.1 mm 3 mps 743 mmHg 92%
19:00 +4°C° 0.1 mm 3 mps 743 mmHg 93%
20:00 +3°C° 0.1 mm 3 mps 743 mmHg 94%
21:00 +3°C° 0.2 mm 3 mps 743 mmHg 94%
22:00 +3°C° 0.2 mm 3 mps 743 mmHg 94%
23:00 +4°C° 0.2 mm 2 mps 743 mmHg 95%

15 April, Thursday

Time Temperature Precipitation Wind Pressure Humidity
00:00 +4°C° 0.2 mm 2 mps 743 mmHg 95%
01:00 +4°C° 0.2 mm 2 mps 743 mmHg 95%
02:00 +4°C° 0.2 mm 2 mps 743 mmHg 95%
03:00 +4°C° 0.1 mm 2 mps 743 mmHg 95%
04:00 +4°C° 0.1 mm 2 mps 743 mmHg 95%
05:00 +4°C° 0.1 mm 2 mps 743 mmHg 96%
06:00 +6°C° 0 mm 1 mps 743 mmHg 95%
07:00 +6°C° 0 mm 1 mps 743 mmHg 94%
08:00 +6°C° 0 mm 1 mps 743 mmHg 94%
09:00 +8°C° 0 mm 1 mps 743 mmHg 88%
10:00 +9°C° 0 mm 1 mps 744 mmHg 83%
11:00 +11°C° 0 mm 1 mps 744 mmHg 78%
12:00 +11°C° 0.1 mm 1 mps 744 mmHg 74%
13:00 +12°C° 0.1 mm 1 mps 744 mmHg 70%
14:00 +13°C° 0.1 mm 2 mps 744 mmHg 66%
15:00 +12°C° 0.3 mm 2 mps 744 mmHg 72%
16:00 +10°C° 0.3 mm 3 mps 744 mmHg 77%
17:00 +10°C° 0.3 mm 4 mps 744 mmHg 83%
18:00 +8°C° 0.3 mm 4 mps 744 mmHg 85%
19:00 +7°C° 0.3 mm 4 mps 744 mmHg 88%
20:00 +6°C° 0.3 mm 4 mps 745 mmHg 90%
21:00 +5°C° 0 mm 4 mps 745 mmHg 91%
22:00 +5°C° 0 mm 3 mps 745 mmHg 92%
23:00 +5°C° 0 mm 3 mps 745 mmHg 92%

16 April, Friday

Time Temperature Precipitation Wind Pressure Humidity
00:00 +5°C° 0 mm 3 mps 745 mmHg 93%
01:00 +5°C° 0 mm 3 mps 745 mmHg 93%
02:00 +5°C° 0 mm 3 mps 745 mmHg 94%
03:00 +5°C° 0 mm 3 mps 745 mmHg 94%
04:00 +5°C° 0 mm 4 mps 745 mmHg 94%
05:00 +5°C° 0 mm 4 mps 745 mmHg 94%
06:00 +5°C° 0 mm 4 mps 745 mmHg 93%
07:00 +5°C° 0 mm 4 mps 745 mmHg 92%
08:00 +5°C° 0 mm 4 mps 746 mmHg 91%
09:00 +5°C° 0 mm 4 mps 746 mmHg 90%
10:00 +6°C° 0 mm 4 mps 746 mmHg 89%
11:00 +6°C° 0 mm 4 mps 747 mmHg 88%
12:00 +7°C° 0 mm 4 mps 747 mmHg 88%
13:00 +7°C° 0 mm 4 mps 747 mmHg 88%
14:00 +7°C° 0 mm 5 mps 747 mmHg 87%
15:00 +7°C° 0 mm 5 mps 748 mmHg 87%
16:00 +7°C° 0 mm 5 mps 748 mmHg 86%
17:00 +7°C° 0 mm 5 mps 748 mmHg 85%
18:00 +6°C° 0 mm 5 mps 749 mmHg 86%
19:00 +5°C° 0 mm 5 mps 749 mmHg 88%
20:00 +3°C° 0 mm 5 mps 750 mmHg 89%
21:00 +3°C° 0 mm 5 mps 750 mmHg 89%
22:00 +4°C° 0 mm 4 mps 750 mmHg 88%
23:00 +5°C° 0 mm 4 mps 751 mmHg 87%
Show more